Volver al catálogo

STARLINK-32760

ActivoComunicacionesVLEO
NORAD 62568·PAYLOAD·🇺🇸 United States

Lanzado Jan 10, 2025 desde Cape Canaveral Space Force Station

Loading…

Próximos Pases (próximas 24 horas)

TLE

ActualizadoSource: CelesTrak SupGP

Época: Sep 14, 2026, 20:51 UTC

1 62568C 25006Q   26257.86923611 -.00023577  00000+0 -85402-3 0  2572
2 62568  43.0016 304.3350 0001640 267.7304  83.9979 15.27587374    16

Sigue STARLINK-32760 en tiempo real con AllMySat

Download on the App Store